Regional Weather Roundup
Issued by NWS

Home | Current Version | Previous Version | Graphics & Text | Print | Product List | Glossary On
Versions: 1 2 3 4 5 6 7 8 9 10 11 12 13 14 15 16 17 18 19 20 21 22 23 24 25 26 27 28 29 30 31 32 33 34 35 36 37 38 39 40 41 42 43 44 45 46 47 48 49 50
957
ASUS43 KLMK 310002
RWRKY
KENTUCKY REGIONAL WEATHER ROUNDUP
NATIONAL WEATHER SERVICE LOUISVILLE KY
800 PM EDT MON MAY 30 2016

NOTE "FAIR" INDICATES FEW OR NO CLOUDS BELOW 12,000 FEET
WITH NO SIGNIFICANT WEATHER AND/OR OBSTRUCTIONS TO VISIBILITY.

KYZ001>023-026-027-061>063-070>075-310100-
WESTERN AND SOUTH CENTRAL KENTUCKY

CITY           SKY/WX    TMP DP  RH WIND       PRES   REMARKS
PADUCAH        CLOUDY    80  66  62 CALM      29.97R
HENDERSON      MOSUNNY   84  55  37 CALM      29.96S
OWENSBORO      SUNNY     85  57  38 NE5       29.98R
HOPKINSVILLE   NOT AVBL
BOWLING GREEN  CLEAR     84  57  39 N5        29.97S
GLASGOW        NOT AVBL
$$

KYZ024-025-028>034-038-045-046-053-310100-
NORTH CENTRAL KENTUCKY

CITY           SKY/WX    TMP DP  RH WIND       PRES   REMARKS
LOUISVILLE/SDF PTCLDY    85  54  34 N7        29.97R
LOUISVILLE/LOU CLEAR     86  55  34 NW6       29.97S
FORT KNOX      NOT AVBL
$$

KYZ035>037-039>044-047>052-055>060-089>105-310100-
NORTHEAST KENTUCKY

CITY           SKY/WX    TMP DP  RH WIND       PRES   REMARKS
LEXINGTON      CLEAR     81  58  45 N7        29.99S
COVINGTON      PTCLDY    84  52  33 NW3       29.98S
FRANKFORT      CLEAR     85  55  35 N5        29.97S
$$

KYZ054-064>069-076>088-106>120-310100-
SOUTHEAST KENTUCKY

CITY           SKY/WX    TMP DP  RH WIND       PRES   REMARKS
JACKSON        CLEAR     79  61  53 CALM      30.01R
LONDON         CLEAR     80  59  48 NE5       30.00R
SOMERSET       NOT AVBL
MIDDLESBORO    NOT AVBL
MONTICELLO     CLEAR     80  63  55 N13       30.00R
$$





USA.gov is the U.S. government's official web portal to all federal, state and local government web resources and services.